Weather in Hagatna

Guam     13°28′21″N   144°45′11″E
В апреле 2022 года жителям России запретили посещать сайт meteo.paraplan.net по решению Генеральной прокуратуры. Аудитория сайта уменьшилась в 10 раз. Владельцы сайта не видят смысла в поддержке погодного сервера в таких условиях. Сайт будет закрыт в октябре.
temp.,
°C
wind,
m/s
gust,
m/s
humid.,
%
clouds,
%
prec.,
mm/h
press.,
hPa
HPBL,
m
26 september, mon
mon2601:00+27s588799 6.1 1008378
04:00+26s5787100 13.0 1008357
07:00+27s4685100 7.6 1009352
10:00+29s5677100 8.3 1010786
13:00+29s567298 0.2 10081043
16:00+29s447399 0.7 1007920
19:00+28s3378100 0.1 1009376
22:00+27sse338297 0.8 1010137
27 september, tue
tue2701:00+27sse3482100 1.3 1009264
04:00+26se3382100 5.3 1008130
07:00+27ese1278100 2.8 1010103
10:00+28e227196 3.1 1010505
13:00+30ene3366100 0.1 1008997
16:00+29ene4369100 0.2 1007884
19:00+27ene348043 1.1 1009269
22:00+27ene358285 1.3 1011328
28 september, wed
wed2801:00+27ene348270 0.6 1009412
04:00+27ene358086 0.9 1008419
07:00+27ene35807 0.0 1010417
10:00+29ene56736 0.3 10111016
13:00+29e567256 0.5 10091049
16:00+29e5572100 0.8 10081017
19:00+28e457896 0.0 1010487
22:00+27e45805 2.1 1012381
29 september, thu
thu2901:00+27e238027 0.0 1010259
04:00+27ene348096 0.1 1009317
07:00+27ese458092 1.1 1011370
10:00+29e446930 1.1 1012967
13:00+30e446828 0.1 10101131
16:00+29e44717 0.5 1009923
19:00+28e347999 0.6 1010433
22:00+27e468139 1.9 1012397
30 september, fri
fri3001:00+27e468153 1.4 1010379
04:00+27ese4581100 5.4 1010295
07:00+27ese458397 6.4 1011294
10:00+28e5676100 8.4 1012856
13:00+29ese4573100 1.0 1009958
16:00+29e4472100 1.2 1009954
19:00+28ene4578100 0.3 1010425
22:00+27ene468064 1.2 1011456